TimeEST,TemperatureF,Dew PointF,Humidity,Sea Level PressureIn,VisibilityMPH,Wind Direction,Wind SpeedMPH,Gust SpeedMPH,PrecipitationIn,Events,Conditions,WindDirDegrees,DateUTC
12:04 AM,30.2,21.2,69,29.93,10.0,NNW,16.1,24.2,0.00,,Overcast,330,2012-11-24 05:04:00
12:12 AM,30.2,21.2,69,29.93,10.0,NW,19.6,28.8,0.00,,Overcast,310,2012-11-24 05:12:00
12:26 AM,30.2,21.2,69,29.94,8.0,NNW,19.6,26.5,0.00,,Overcast,330,2012-11-24 05:26:00
12:43 AM,28.4,21.2,74,29.94,4.0,NNW,16.1,27.6,0.00,Snow,Light Snow,330,2012-11-24 05:43:00
12:54 AM,28.9,23.0,78,29.97,4.0,NNW,13.8,24.2,0.00,Snow,Light Snow,330,2012-11-24 05:54:00
1:11 AM,28.4,23.0,80,29.94,1.5,NNW,20.7,26.5,0.01,Snow,Light Snow,340,2012-11-24 06:11:00
1:21 AM,28.4,23.0,80,29.94,3.0,NNW,19.6,26.5,0.01,Snow,Light Snow,330,2012-11-24 06:21:00
1:45 AM,28.4,21.2,74,29.95,7.0,NNW,16.1,26.5,0.01,Snow,Light Snow,330,2012-11-24 06:45:00
1:54 AM,28.9,21.9,75,29.98,4.0,NNW,19.6,26.5,0.01,Snow,Light Snow,330,2012-11-24 06:54:00
2:04 AM,28.4,21.2,74,29.95,3.0,NW,12.7,25.3,0.00,Snow,Light Snow,320,2012-11-24 07:04:00
2:13 AM,28.4,21.2,74,29.96,9.0,NNW,15.0,-,0.00,,Overcast,330,2012-11-24 07:13:00
2:54 AM,28.9,21.9,75,30.00,10.0,NNW,16.1,21.9,0.00,,Overcast,330,2012-11-24 07:54:00
3:54 AM,28.0,21.0,75,30.02,8.0,NNW,12.7,-,0.00,Snow,Light Snow,330,2012-11-24 08:54:00
4:54 AM,28.9,21.0,72,30.02,9.0,NW,17.3,-,0.00,,Overcast,320,2012-11-24 09:54:00
5:54 AM,28.0,19.0,69,30.04,10.0,NW,17.3,27.6,0.00,Snow,Light Snow,320,2012-11-24 10:54:00
6:54 AM,28.0,19.0,69,30.05,10.0,NNW,17.3,23.0,0.00,,Overcast,340,2012-11-24 11:54:00
7:45 AM,26.6,17.6,69,30.04,10.0,NNW,17.3,-,N/A,,Overcast,340,2012-11-24 12:45:00
8:54 AM,27.0,17.1,66,30.09,10.0,NNW,23.0,26.5,0.00,,Overcast,340,2012-11-24 13:54:00
9:54 AM,27.0,17.1,66,30.10,10.0,NNW,16.1,-,N/A,,Overcast,340,2012-11-24 14:54:00
10:54 AM,27.0,18.0,69,30.11,10.0,NNW,12.7,-,N/A,,Overcast,330,2012-11-24 15:54:00
11:54 AM,27.0,18.0,69,30.09,10.0,NNW,13.8,-,N/A,,Overcast,340,2012-11-24 16:54:00
12:54 PM,28.0,19.0,69,30.08,10.0,NNW,15.0,20.7,N/A,,Overcast,340,2012-11-24 17:54:00
1:54 PM,28.0,19.0,69,30.08,10.0,NW,11.5,-,N/A,,Overcast,310,2012-11-24 18:54:00
2:47 PM,28.4,17.6,64,30.04,10.0,NNW,12.7,-,N/A,,Overcast,330,2012-11-24 19:47:00
2:54 PM,28.0,18.0,66,30.07,10.0,NW,11.5,-,N/A,,Overcast,320,2012-11-24 19:54:00
3:40 PM,28.4,19.4,69,30.04,10.0,WNW,9.2,-,N/A,,Overcast,300,2012-11-24 20:40:00
3:54 PM,28.9,18.0,64,30.07,10.0,WNW,11.5,-,N/A,,Overcast,290,2012-11-24 20:54:00
4:14 PM,28.4,17.6,64,30.04,10.0,NW,10.4,-,N/A,,Overcast,310,2012-11-24 21:14:00
4:54 PM,28.0,18.0,66,30.07,10.0,NW,10.4,-,N/A,,Overcast,310,2012-11-24 21:54:00
5:08 PM,28.4,17.6,64,30.04,10.0,NW,10.4,-,N/A,,Overcast,310,2012-11-24 22:08:00
5:50 PM,28.4,17.6,64,30.02,10.0,NW,11.5,-,N/A,,Overcast,320,2012-11-24 22:50:00
5:54 PM,28.0,18.0,66,30.06,10.0,NW,8.1,-,N/A,,Overcast,320,2012-11-24 22:54:00
6:54 PM,28.0,18.0,66,30.05,10.0,NW,9.2,-,N/A,,Overcast,320,2012-11-24 23:54:00
7:54 PM,28.0,19.0,69,30.02,10.0,North,4.6,-,N/A,,Overcast,350,2012-11-25 00:54:00
8:26 PM,28.4,19.4,69,29.99,10.0,Calm,Calm,-,N/A,,Overcast,0,2012-11-25 01:26:00
8:54 PM,28.0,19.0,69,30.01,10.0,NW,4.6,-,N/A,,Overcast,320,2012-11-25 01:54:00
9:18 PM,28.4,19.4,69,29.97,10.0,NW,3.5,-,N/A,,Overcast,320,2012-11-25 02:18:00
9:54 PM,28.0,19.9,72,29.98,10.0,Calm,Calm,-,N/A,,Overcast,0,2012-11-25 02:54:00
10:31 PM,28.4,19.4,69,29.94,10.0,South,3.5,-,N/A,,Overcast,190,2012-11-25 03:31:00
10:54 PM,28.0,19.9,72,29.97,10.0,SSE,3.5,-,N/A,,Overcast,160,2012-11-25 03:54:00
11:54 PM,28.0,21.0,75,29.96,10.0,SSE,3.5,-,N/A,,Overcast,150,2012-11-25 04:54:00